Regional Weather Roundup
Issued by NWS

Home | Current Version | Previous Version | Text Only | Print | Product List | Glossary On
Versions: 1 2 3 4 5 6 7 8 9 10 11 12 13 14 15 16 17 18 19 20 21 22 23 24 25 26 27 28 29 30 31 32 33 34 35 36 37 38 39 40 41 42 43 44 45 46 47 48 49 50
000
ASUS45 KREV 171410
RWRNV
NEVADA REGIONAL WEATHER ROUNDUP
NATIONAL WEATHER SERVICE RENO NV
700 AM PDT WED SEP 17 2014

NOTE: "FAIR" INDICATES FEW OR NO CLOUDS BELOW 12,000 FEET WITH NO
SIGNIFICANT WEATHER AND/OR OBSTRUCTIONS TO VISIBILITY.

NVZ001-003-004-171500-
WESTERN NEVADA

CITY           SKY/WX    TMP DP  RH WIND       PRES   REMARKS
RENO           CLOUDY    65  35  33 SE3       29.98R
MINDEN         FAIR      61  34  36 SW5       30.02R
FALLON         PTCLDY    61  30  31 SE6       29.95R SMOKE
LOVELOCK       PTCLDY    57  30  35 E3        29.95R HAZE
HAWTHORNE      CLEAR     64  36  34 CALM      29.98R
$$

NVZ002-CAZ072-073-171500-
NORTHERN AND CENTRAL SIERRA

CITY           SKY/WX    TMP DP  RH WIND       PRES   REMARKS
S. LAKE TAHOE  PTCLDY    48  31  51 CALM      30.09S
TRUCKEE        MOCLDY    57  36  44 CALM      30.07S
SQUAW VLY 8000 NOT AVBL
SUSANVILLE     CLEAR     61  34  36 W7        29.95
BLUE CANYON    HAZE      65  29  25 S7        30.05R VSB 1
MAMMOTH LAKES  FAIR      46  36  66 CALM      30.18S
BRIDGEPORT     FAIR      51  29  42 CALM      30.13R
$$

NVZ030-031-036-171500-
NORTHERN NEVADA

CITY           SKY/WX    TMP DP  RH WIND       PRES   REMARKS
ELKO           PTCLDY    50  33  52 CALM      30.03R
WINNEMUCCA     MOCLDY    54  31  41 SE5       29.98R
WENDOVER       CLEAR     63  37  39 W5        29.96R
$$

NVZ035-037-171500-
CENTRAL NEVADA

CITY           SKY/WX    TMP DP  RH WIND       PRES   REMARKS
ELY            CLEAR     53  38  56 SE9       30.15R
EUREKA           N/A     58  38  47 SW12      30.08R
$$

NVZ013-014-171500-
SOUTH CENTRAL NEVADA

CITY           SKY/WX    TMP DP  RH WIND       PRES   REMARKS
TONOPAH        CLEAR     59  48  67 N6        30.09R
$$

NVZ017-020-022-171500-
SOUTHERN NEVADA

CITY           SKY/WX    TMP DP  RH WIND       PRES   REMARKS
LAS VEGAS      PTCLDY    80  58  46 SE7       29.85R
N. LAS VEGAS   CLEAR     78  54  43 CALM      29.88R
NELLIS AFB     CLEAR     76  58  52 NE9       29.87R
HENDERSON      CLEAR     74  56  53 SE5       29.92R
MERCURY        NOT AVBL
$$



USA.gov is the U.S. government's official web portal to all federal, state and local government web resources and services.